Regional Weather Roundup
Issued by NWS

Home | Current Version | Previous Version | Graphics & Text | Print | Product List | Glossary Off
Versions: 1 2 3 4 5 6 7 8 9 10 11 12 13 14 15 16 17 18 19 20 21 22 23 24 25 26 27 28 29 30 31 32 33 34 35 36 37 38 39 40 41 42 43 44 45 46 47 48 49 50

000
ASUS43 KFSD 051910
RWRSD

WEATHER ROUNDUP FOR SOUTH DAKOTA
NATIONAL WEATHER SERVICE SIOUX FALLS SD
200 PM CDT TUE MAY 05 2015

NOTE: "FAIR" INDICATES FEW OR NO CLOUDS BELOW 12,000 FEET WITH NO
SIGNIFICANT WEATHER AND/OR OBSTRUCTIONS TO VISIBILITY.


SDZ001>005-009-010-012>017-052000-
NORTHWEST AND NORTH CENTRAL SOUTH DAKOTA

CITY           SKY/WX    TMP DP  RH WIND       PRES   REMARKS
BUFFALO          N/A     70  47  43 SE26G37   29.83S
FAITH            N/A     64  49  57 S23G29    29.95F
MOBRIDGE       SUNNY     76  37  24 SE20      29.95F
$$

SDZ012>016-024>037-041>051-057-063-072>074-052000-
SOUTHWEST AND SOUTH CENTRAL SOUTH DAKOTA

CITY           SKY/WX    TMP DP  RH WIND       PRES   REMARKS
RAPID CTY ARPT CLOUDY    61  49  64 S20G25    29.94F
PIERRE         CLOUDY    69  46  43 SE20      29.97F
CUSTER         CLOUDY    53  44  71 E9        29.98F
ELLSWORTH AFB  CLOUDY    61  50  65 S18G25    29.93F
PHILIP         CLOUDY    62  53  72 SE21      29.96F
PINE RIDGE     CLOUDY    61  49  64 S10       29.96F
SPEARFISH      FAIR      68  48  49 E18G29    29.86F
WINNER         CLOUDY    61  50  67 SE15      30.01F
$$

SDZ004>011-016>023-039-040-052000-
NORTHEAST SOUTH DAKOTA

CITY           SKY/WX    TMP DP  RH WIND       PRES   REMARKS
ABERDEEN       SUNNY     76  37  24 SE15G31   30.02F
WATERTOWN      MOSUNNY   74  46  36 SE18G28   30.05F
BROOKINGS      PTSUNNY   70  54  56 SE21      30.06F
SISSETON         N/A     77  36  22 S18G29    30.04F
$$

SDZ017-020-022-023-036>040-048>070-052000-
SOUTHEAST SOUTH DAKOTA

CITY           SKY/WX    TMP DP  RH WIND       PRES   REMARKS
SIOUX FALLS    CLOUDY    70  57  63 SE17G23   30.05F
HURON          PTSUNNY   75  44  33 SE17G24   30.00F
CHAMBERLAIN    CLOUDY    64  48  56 SE16G22   30.01F
MITCHELL       CLOUDY    69  51  52 SE13      30.03F
YANKTON        CLOUDY    63  55  77 SE8       30.04S
$$

ABBREVIATIONS USED IN REMARKS
   TC - TEMPERATURE IN CELSIUS
  WCI - WIND CHILL INDEX
   HX - HEAT INDEX
  VSB - VISIBILITY



USA.gov is the U.S. government's official web portal to all federal, state and local government web resources and services.